Miscellaneous Local Product
Issued by NWS North Platte, NE

Home | Current Version | Previous Version | Text Only | Print | Product List | Glossary On
Versions: 1 2 3 4 5 6 7 8 9 10 11 12 13 14 15 16 17 18 19 20 21 22 23 24 25 26 27 28 29 30 31 32 33 34 35 36 37 38 39 40 41 42 43 44 45 46 47 48 49 50
524
AXUS43 KLBF 190710
MISLBF


WESTERN AND NORTH CENTRAL NEBRASKA HOURLY WEATHER ROUNDUP
NATIONAL WEATHER SERVICE NORTH PLATTE NE
100 AM CST FRI JAN 19 2018

NOTE: "FAIR" INDICATES FEW OR NO CLOUDS BELOW 12,000 FEET WITH NO
SIGNIFICANT WEATHER AND/OR OBSTRUCTIONS TO VISIBILITY.

NOTE: STATIONS NOT REPORTING VARIABLES SUCH AS SKY/WEATHER OR
PRESSURE ARE PROVIDED BY RAWS AND APRS NETWORKS AND ARE NOT UNDER
NATIONAL WEATHER SERVICE QUALITY CONTROL.

...OBSERVATIONS IN AND NEAR THE EASTERN PANHANDLE OF NEBRASKA...

CITY           SKY/WX    TMP DP  RH WIND       PRES   REMARKS
PINE RIDGE     CLOUDY    35  29  78 W5        29.74F WCI  31
GORDON         FAIR      39  30  69 SW8       29.75F WCI  34
CHADRON        CLOUDY    33  29  85 W6        29.75F WCI  28
ALLIANCE       MOCLDY    33  29  85 SW5       29.79F WCI  29
SIDNEY         MOCLDY    34  20  56 W10       29.85F WCI  26
CRESCENT LAKE    N/A     40  30  66 SW5         N/A
$$

...OBSERVATIONS IN NORTHERN NEBRASKA AND FAR SOUTHERN SOUTH DAKOTA...

CITY           SKY/WX    TMP DP  RH WIND       PRES   REMARKS
WINNER         FAIR      42  31  64 SW14      29.66F
VALENTINE      MOCLDY    41  30  65 SW9       29.71F
AINSWORTH      CLOUDY    40  32  74 SW10      29.73F WCI  33
O`NEILL        CLOUDY    37  32  81 SW9       29.74F WCI  31
THEDFORD       CLOUDY    38  31  74 SW7       29.78F WCI  33
BROKEN BOW     CLOUDY    35  25  66 CALM      29.79F
ORD            CLOUDY    33  28  81 CALM      29.78F
ALBION         CLOUDY    39  29  69 S3        29.79F
VALENTINE NWR    N/A     42  32  67 SW9         N/A
HALSEY           N/A     42  26  53 SW6         N/A
BUTTE            N/A     37  30  77 SW9         N/A  WCI  30
CHAMBERS         N/A     37  29  74 W7          N/A  WCI  31
EWING            N/A     34  30  85 S3          N/A
$$

...OBSERVATIONS IN SOUTHWEST NEBRASKA AND FAR NORTHEAST COLORADO...

CITY           SKY/WX    TMP DP  RH WIND       PRES   REMARKS
WRAY           FAIR      34  19  55 W5        29.87F WCI  30
HOLYOKE        FAIR      32  23  69 W7        29.86F WCI  26
IMPERIAL       CLOUDY    33  24  69 W7        29.84F WCI  27
OGALLALA       MOCLDY    30  25  81 W5        29.83F WCI  26
NORTH PLATTE   CLOUDY    26  22  84 W3        29.82F
MCCOOK         CLOUDY    30  23  75 W6        29.85F WCI  24
LEXINGTON      CLOUDY    30  26  85 CALM      29.82F
STAPLETON        N/A     35  27  73 CALM        N/A
GOTHENBURG       N/A     34  25  69 CALM        N/A
CALLAWAY         N/A     38  27  64 SW8         N/A  WCI  32
$$

...OBSERVATIONS IN CENTRAL LINCOLN COUNTY AREA...

CITY           SKY/WX    TMP DP  RH WIND       PRES   REMARKS
N.P. AIRPORT   CLOUDY    26  22  84 W3        29.82F
N.P. DOWNTOWN    N/A     27  25  92 CALM        N/A
N.P. SOUTHEAST   N/A     29  26  87 CALM        N/A
N.P. HILLCREST   N/A     36  29  76 CALM        N/A
$$

...SOME OBSERVATIONS FROM AROUND THE REGION...

CITY           SKY/WX    TMP DP  RH WIND       PRES   REMARKS
DENVER         MOCLDY    43  14  31 S15       29.91F
BERTHOUD PASS  FAIR      28  18  64 W25G33    30.23F WCI  14
GRAND JUNCTION CLOUDY    33  19  56 E7        30.12F WCI  27
LARAMIE        MOCLDY    41  17  38 SW12      29.95F
CHEYENNE       CLOUDY    48  17  29 W12       29.90F
CASPER         PTCLDY    44  19  36 SW23G32   29.81F
BISMARCK       CLOUDY    30  26  85 CALM      29.58F
RAPID CITY     CLOUDY    41  27  57 CALM      29.66F
PIERRE         CLOUDY    28  25  88 VRB5      29.64F WCI  23
SIOUX FALLS    CLOUDY    33  28  81 S6        29.73F WCI  28
OMAHA          CLOUDY    27  22  81 SE10      29.86F WCI  17
GRAND ISLAND   CLOUDY    33  28  81 S5        29.81F WCI  29
SCOTTSBLUFF    MOCLDY    35  29  78 E3        29.82F
KANSAS CITY    CLOUDY    36  19  50 SW18G26   29.99F WCI  26
HILL CITY      CLOUDY    36  14  40 W6        29.88F WCI  31
WICHITA        CLOUDY    34  17  50 S17       30.03F WCI  23
DODGE CITY     CLOUDY    35  14  42 SW13      29.95F WCI  26
OKLAHOMA CITY  CLOUDY    26  13  57 S9        30.15F WCI  17
DALLAS         MOCLDY    39  18  42 S13       30.26F WCI  31
AMARILLO       CLOUDY    32  11  41 SW14      30.03F WCI  22
$$




USA.gov is the U.S. government's official web portal to all federal, state and local government web resources and services.